Find Starlink 33760

NORAD ID: 63764 Int'l Des: 2025-089 Owner: SPXS Country: US Constellation: starlink operational
LEOCIRCULAR

当前视图

正在加载3D地球...

About Starlink 33760

Starlink 33760 (NORAD 63764) is a starlink constellation satellite (v2 mini) launched Apr 29, 2025 by SPXS of US. It operates in LEO, CIRCULAR orbit with a mass of 575.00 kg.

关于 Starlink 33760

正在加载描述...

即将过境

Passes for default location (London). Set your location on the main map for personalized predictions.

高度历史

Loading altitude history...

两行轨道根数

1 63764U 25089P 26171.06836235 .00009995 00000-0 37214-3 0 9992
2 63764 42.9998 187.1748 0001827 279.2151 80.8494 15.27588188 64613
Epoch: Jun 20, 2026 • Age: 57 hours

当前状态

高度 490.8 km
速度 7.62 km/s
星下点 -31.17°S, 43.81°W
发射日期 Apr 29, 2025
运行时间 1.1 years
类型 internet

技术详情

分类 Payload
质量 575.00 kg
干质量 530.00 kg
总质量 575.00 kg
长度 0.30 m
直径 4.10 m
跨度 29.00 m
形状 Box + pan
制造商 SPXS
平台类型 Starlink V2MO
阶段状态 In Orbit
所有者/国家 SPXS/US

Most Searched